Weather History for North Island, CA

Change the Weather History Date:

Tuesday, October 8, 2013

  Actual Average Record
Temperature  
Mean Temperature 70 °F -  
Max Temperature 75 °F 70 °F 100 °F (2008)
Min Temperature 66 °F 59 °F 33 °F (1996)
Cooling Degree Days 6    
Growing Degree Days 20 (Base 50)    
Moisture  
Dew Point 56 °F    
Average Humidity 62    
Maximum Humidity 83    
Minimum Humidity 44    
Precipitation  
Precipitation 0.00 in - - ()
Sea Level Pressure  
Sea Level Pressure 29.89 in    
Wind  
Wind Speed 4 mph (SSW)    
Max Wind Speed 10 mph    
Max Gust Speed -    
Visibility 9 miles    
Events      
Averages and records for this station are not official NWS values.
T = Trace of Precipitation, MM = Missing Value Source: NWS Daily Summary

Daily Weather History Graph

Daily Weather History Graph

Search for Another Location

Airport:

Trip Planner

Search our weather history database for the weather conditions in past years. The results will help you decide how hot, cold, wet, or windy it might be!

Date:

Astronomy

Oct. 08, 2013 Rise Set
Actual Time 6:48 AM PDT 6:24 PM PDT
Civil Twilight 6:23 AM PDT 6:48 PM PDT
Nautical Twilight 5:54 AM PDT 7:17 PM PDT
Astronomical Twilight 5:26 AM PDT 7:45 PM PDT
Moon 10:34 AM PDT (10/8) 9:17 PM PDT (10/8)
Length of Visible Light 12h 25m
Length of Day
11h 36m
Waxing Crescent, 17% of the Moon is Illuminated
Oct 8
Waxing Crescent
Oct 11
First Quarter
Oct 18
Full
Oct 26
Last Quarter
Nov 3
New

Hourly Weather History & Observations

Time (PDT) Temp. Dew Point Humidity Pressure Visibility Wind Dir Wind Speed Gust Speed Precip Events Conditions
12:52 AM 66.0 °F 59.0 °F 78% 29.93 in 8.0 mi Calm Calm - N/A   Partly Cloudy
1:52 AM 66.0 °F 60.1 °F 81% 29.91 in 8.0 mi Calm Calm - N/A   Partly Cloudy
2:22 AM 66.2 °F 60.8 °F 83% 29.91 in 8.0 mi Calm Calm - N/A   Mostly Cloudy
2:52 AM 69.1 °F 60.1 °F 73% 29.91 in 8.0 mi Calm Calm - N/A   Mostly Cloudy
3:52 AM 68.0 °F 59.0 °F 73% 29.89 in 9.0 mi Calm Calm - N/A   Mostly Cloudy
4:52 AM 66.9 °F 59.0 °F 76% 29.88 in 8.0 mi Calm Calm - N/A   Mostly Cloudy
5:52 AM 68.0 °F 57.0 °F 68% 29.90 in 10.0 mi West 3.5 mph - N/A   Mostly Cloudy
6:52 AM 66.9 °F 57.0 °F 70% 29.91 in 7.0 mi SE 5.8 mph - N/A   Mostly Cloudy
7:52 AM 68.0 °F 57.9 °F 70% 29.92 in 6.0 mi East 5.8 mph - N/A   Haze
8:52 AM 70.0 °F 57.9 °F 65% 29.93 in 6.0 mi SE 6.9 mph - N/A   Haze
9:52 AM 71.1 °F 57.0 °F 61% 29.94 in 7.0 mi SSE 5.8 mph - N/A   Mostly Cloudy
10:52 AM 73.9 °F 55.9 °F 53% 29.94 in 8.0 mi SSW 8.1 mph - N/A   Mostly Cloudy
11:52 AM 73.9 °F 55.9 °F 53% 29.93 in 10.0 mi SSW 9.2 mph - N/A   Scattered Clouds
12:52 PM 75.0 °F 55.0 °F 50% 29.91 in 10.0 mi SSW 6.9 mph - N/A   Scattered Clouds
1:52 PM 75.9 °F 54.0 °F 46% 29.89 in 10.0 mi SW 9.2 mph - N/A   Scattered Clouds
2:52 PM 75.0 °F 52.0 °F 44% 29.88 in 10.0 mi SSW 6.9 mph - N/A   Scattered Clouds
3:52 PM 72.0 °F 54.0 °F 53% 29.88 in 10.0 mi SW 10.4 mph - N/A   Mostly Cloudy
4:52 PM 73.9 °F 53.1 °F 48% 29.86 in 10.0 mi SSW 8.1 mph - N/A   Mostly Cloudy
5:52 PM 70.0 °F 51.1 °F 51% 29.86 in 10.0 mi SW 5.8 mph - N/A   Mostly Cloudy
6:52 PM 70.0 °F 52.0 °F 53% 29.85 in 10.0 mi SSW 6.9 mph - N/A   Mostly Cloudy
7:52 PM 68.0 °F 54.0 °F 61% 29.85 in 10.0 mi WSW 8.1 mph - N/A   Mostly Cloudy
8:52 PM 66.9 °F 53.1 °F 61% 29.86 in 10.0 mi WSW 9.2 mph - N/A   Mostly Cloudy
9:52 PM 66.0 °F 52.0 °F 60% 29.87 in 10.0 mi WSW 8.1 mph - N/A   Mostly Cloudy
10:52 PM 66.9 °F 51.1 °F 57% 29.86 in 10.0 mi SW 5.8 mph - N/A   Mostly Cloudy
11:52 PM 66.9 °F 52.0 °F 59% 29.85 in 10.0 mi SW 8.1 mph - N/A   Mostly Cloudy